Novato, CA

5:11 PM PST on November 17, 2019 (GMT -0800)
Gnoss

Weather History for KDVO - September, 2019

Change the Weather History Date:

Sunday, September 29, 2019

  Actual Average (WUND) Record (WUND)
Temperature  
Mean Temperature 56 °F -  
Max Temperature 69 °F - - (-1)
Min Temperature 44 °F - - (-1)
Degree Days  
Heating Degree Days 8    
Growing Degree Days 6 (Base 50)    
Moisture  
Dew Point 42 °F    
Average Humidity 57    
Maximum Humidity 82    
Minimum Humidity 33    
Precipitation  
Precipitation 0.00 in - - ()
Sea Level Pressure  
Sea Level Pressure 29.90 in    
Wind  
Wind Speed 9 mph ()    
Max Wind Speed 21 mph    
Max Gust Speed 32 mph    
Visibility 10.0 miles    
Events      
Averages and records for this station are not official NWS values.
T = Trace of Precipitation, MM = Missing Value Source: Averaged Metar Reports

Daily Weather History Graph

Daily Weather History Graph

Search for Another Location

Airport or City:

Astronomy

Sep. 29, 2019 Rise Set
Actual Time 7:04 AM PDT 6:56 PM PDT
Civil Twilight 6:37 AM PDT 7:22 PM PDT
Nautical Twilight 6:07 AM PDT 7:53 PM PDT
Astronomical Twilight 5:36 AM PDT 8:24 PM PDT
Moon 8:01 AM PDT (9/29) 8:00 PM PDT (9/29)
Length of Visible Light 12h 44m
Length of Day
11h 52m
New Moon, 2% of the Moon is Illuminated
Sep 29
New Moon
Oct 5
First Quarter
Oct 13
Full
Oct 21
Last Quarter
Oct 27
New

Hourly Weather History & Observations

Time (PDT) Temp. Windchill Dew Point Humidity Pressure Visibility Wind Dir Wind Speed Gust Speed Precip Events Conditions
12:15 AM 57.2 °F - 39.2 °F 51% 29.84 in 10.0 mi NW 15.0 mph - N/A   Clear
12:55 AM 55.4 °F - 37.4 °F 51% 29.84 in 10.0 mi NW 12.7 mph 19.6 mph N/A   Clear
1:15 AM 55.4 °F - 37.4 °F 51% 29.85 in 10.0 mi NW 16.1 mph - N/A   Clear
1:35 AM 55.4 °F - 37.4 °F 51% 29.85 in 10.0 mi NW 12.7 mph - N/A   Clear
1:55 AM 55.4 °F - 35.6 °F 47% 29.85 in 10.0 mi NW 13.8 mph - N/A   Clear
2:15 AM 55.4 °F - 35.6 °F 47% 29.86 in 10.0 mi WNW 8.1 mph 16.1 mph N/A   Clear
2:55 AM 53.6 °F - 35.6 °F 51% 29.87 in 10.0 mi Calm Calm - N/A   Clear
3:15 AM 53.6 °F - 37.4 °F 54% 29.87 in 10.0 mi South 8.1 mph - N/A   Clear
3:35 AM 53.6 °F - 37.4 °F 54% 29.87 in 10.0 mi SSW 5.8 mph - N/A   Clear
3:55 AM 50.0 °F - 37.4 °F 62% 29.87 in 10.0 mi North - - N/A   Clear
4:15 AM 50.0 °F - 37.4 °F 62% 29.87 in 10.0 mi Calm Calm - N/A   Clear
4:35 AM 50.0 °F - 37.4 °F 62% 29.88 in 10.0 mi East 5.8 mph - N/A   Clear
4:55 AM 50.0 °F - 37.4 °F 62% 29.88 in 10.0 mi East 4.6 mph - N/A   Clear
5:15 AM 46.4 °F 44.3 °F 39.2 °F 76% 29.88 in 10.0 mi ENE 4.6 mph - N/A   Clear
5:35 AM 46.4 °F 45.2 °F 39.2 °F 76% 29.88 in 10.0 mi ESE 3.5 mph - N/A   Clear
5:55 AM 44.6 °F - 37.4 °F 76% 29.89 in 10.0 mi Calm Calm - N/A   Clear
6:15 AM 46.4 °F - 39.2 °F 76% 29.89 in 10.0 mi Calm Calm - N/A   Clear
6:35 AM 46.4 °F - 37.4 °F 71% 29.90 in 10.0 mi Calm Calm - N/A   Clear
6:55 AM 44.6 °F 43.1 °F 39.2 °F 81% 29.91 in 10.0 mi NNW 3.5 mph - N/A   Clear
7:15 AM 46.4 °F - 39.2 °F 76% 29.91 in 10.0 mi Calm Calm - N/A   Clear
7:35 AM 48.2 °F - 39.2 °F 71% 29.92 in 10.0 mi Variable 4.6 mph - N/A   Clear
7:55 AM 48.2 °F - 39.2 °F 71% 29.93 in 10.0 mi Calm Calm - N/A   Clear
8:15 AM 50.0 °F - 41.0 °F 71% 29.93 in 10.0 mi NNE 4.6 mph - N/A   Clear
8:35 AM 53.6 °F - 41.0 °F 62% 29.94 in 10.0 mi Calm Calm - N/A   Clear
8:55 AM 55.4 °F - 42.8 °F 63% 29.94 in 10.0 mi NNE 6.9 mph - N/A   Clear
9:15 AM 57.2 °F - 42.8 °F 59% 29.94 in 10.0 mi North 4.6 mph - N/A   Clear
9:35 AM 59.0 °F - 42.8 °F 55% 29.94 in 10.0 mi North 6.9 mph - N/A   Clear
9:55 AM 60.8 °F - 42.8 °F 52% 29.94 in 10.0 mi North 5.8 mph - N/A   Clear
10:15 AM 64.4 °F - 42.8 °F 45% 29.94 in 10.0 mi North 6.9 mph - N/A   Clear
10:35 AM 66.2 °F - 41.0 °F 40% 29.94 in 10.0 mi NNW 10.4 mph - N/A   Clear
10:55 AM 66.2 °F - 41.0 °F 40% 29.94 in 10.0 mi WNW 11.5 mph 19.6 mph N/A   Partly Cloudy
11:15 AM 66.2 °F - 42.8 °F 43% 29.94 in 10.0 mi NW 12.7 mph - N/A   Scattered Clouds
11:35 AM 68.0 °F - 41.0 °F 37% 29.93 in 10.0 mi NW 13.8 mph - N/A   Partly Cloudy
11:55 AM 68.0 °F - 41.0 °F 37% 29.93 in 10.0 mi WNW 13.8 mph - N/A   Clear
12:15 PM 68.0 °F - 42.8 °F 40% 29.92 in 10.0 mi WNW 13.8 mph - N/A   Partly Cloudy
12:35 PM 68.0 °F - 41.0 °F 37% 29.92 in 10.0 mi WSW 12.7 mph 19.6 mph N/A   Scattered Clouds
12:55 PM 69.8 °F - 39.2 °F 33% 29.92 in 10.0 mi West 12.7 mph 26.5 mph N/A   Clear
1:15 PM 68.0 °F - 39.2 °F 35% 29.91 in 10.0 mi SW 16.1 mph - N/A   Partly Cloudy
1:35 PM 68.0 °F - 39.2 °F 35% 29.91 in 10.0 mi West 18.4 mph - N/A   Clear
1:55 PM 68.0 °F - 42.8 °F 40% 29.90 in 10.0 mi WSW 17.3 mph 23.0 mph N/A   Clear
2:15 PM 68.0 °F - 41.0 °F 37% 29.89 in 10.0 mi SW 17.3 mph 25.3 mph N/A   Clear
2:35 PM 69.8 °F - 41.0 °F 35% 29.90 in 10.0 mi West 16.1 mph 32.2 mph N/A   Mostly Cloudy
2:55 PM 68.0 °F - 42.8 °F 40% 29.89 in 10.0 mi SW 17.3 mph - N/A   Mostly Cloudy
3:15 PM 68.0 °F - 41.0 °F 37% 29.89 in 10.0 mi WSW 19.6 mph 25.3 mph N/A   Partly Cloudy
3:35 PM 66.2 °F - 42.8 °F 43% 29.89 in 10.0 mi West 18.4 mph 25.3 mph N/A   Clear
3:55 PM - - - N/A% 29.90 in - WSW 17.3 mph 24.2 mph N/A   Unknown
4:15 PM 66.2 °F - 44.6 °F 46% 29.89 in 10.0 mi WSW 20.7 mph 28.8 mph N/A   Unknown
4:35 PM 64.4 °F - 44.6 °F 49% 29.89 in 10.0 mi West 19.6 mph 25.3 mph N/A   Clear
4:55 PM 64.4 °F - 44.6 °F 49% 29.89 in 10.0 mi SW 17.3 mph 24.2 mph N/A   Clear
5:15 PM 64.4 °F - 44.6 °F 49% 29.88 in 10.0 mi WSW 16.1 mph - N/A   Clear
5:35 PM 62.6 °F - 44.6 °F 52% 29.89 in 10.0 mi West 12.7 mph 20.7 mph N/A   Clear
5:55 PM 62.6 °F - 46.4 °F 55% 29.89 in 10.0 mi WSW 17.3 mph 26.5 mph N/A   Clear
6:15 PM 60.8 °F - 46.4 °F 59% 29.89 in 10.0 mi West 8.1 mph 13.8 mph N/A   Clear
6:35 PM 60.8 °F - 44.6 °F 55% 29.89 in 10.0 mi Variable 6.9 mph - N/A   Clear
6:55 PM 60.8 °F - 44.6 °F 55% 29.89 in 10.0 mi Variable 3.5 mph 13.8 mph N/A   Clear
7:15 PM 59.0 °F - 44.6 °F 59% 29.89 in 10.0 mi WSW 8.1 mph - N/A   Clear
7:35 PM 59.0 °F - 44.6 °F 59% 29.89 in 10.0 mi Variable 5.8 mph - N/A   Mostly Cloudy
7:55 PM 59.0 °F - 46.4 °F 63% 29.89 in 10.0 mi Variable 6.9 mph - N/A   Mostly Cloudy
8:15 PM 59.0 °F - 48.2 °F 67% 29.89 in 10.0 mi WSW 10.4 mph - N/A   Overcast
8:35 PM 59.0 °F - 48.2 °F 67% 29.89 in 10.0 mi SW 9.2 mph - N/A   Overcast
8:55 PM 59.0 °F - 48.2 °F 67% 29.90 in 10.0 mi SW 8.1 mph - N/A   Overcast
9:15 PM 59.0 °F - 48.2 °F 67% 29.90 in 10.0 mi SSW 6.9 mph - N/A   Overcast
9:35 PM 59.0 °F - 50.0 °F 72% 29.90 in 10.0 mi North - - N/A   Overcast
9:55 PM 57.2 °F - 48.2 °F 72% 29.90 in 10.0 mi SW 5.8 mph - N/A   Mostly Cloudy
10:15 PM 55.4 °F - 48.2 °F 77% 29.90 in 10.0 mi SW 6.9 mph - N/A   Scattered Clouds
10:35 PM 55.4 °F - 50.0 °F 82% 29.90 in 10.0 mi WSW 9.2 mph - N/A   Partly Cloudy
10:55 PM 55.4 °F - 50.0 °F 82% 29.90 in 10.0 mi SW 9.2 mph - N/A   Scattered Clouds
11:15 PM 55.4 °F - 48.2 °F 77% 29.90 in 10.0 mi WSW 9.2 mph - N/A   Scattered Clouds
11:35 PM 55.4 °F - 48.2 °F 77% 29.91 in 10.0 mi WSW 6.9 mph - N/A   Clear
11:55 PM 55.4 °F - 48.2 °F 77% 29.91 in 10.0 mi West 10.4 mph - N/A   Clear